Weather History for KMMH - September, 2013

Change the Weather History Date:

Thursday, September 5, 2013

  Actual Average (KBIH) Record (KBIH)
Temperature  
Mean Temperature 64 °F 71 °F  
Max Temperature 78 °F 92 °F 103 °F (1955)
Min Temperature 50 °F 50 °F 38 °F (1985)
Degree Days  
Heating Degree Days 1 0  
Month to date heating degree days 0  
Since 1 July heating degree days 2  
Cooling Degree Days 0 6  
Month to date cooling degree days 33  
Year to date cooling degree days 1010  
Growing Degree Days 14 (Base 50)    
Moisture  
Dew Point 36 °F    
Average Humidity 37    
Maximum Humidity 71    
Minimum Humidity 17    
Precipitation  
Precipitation 0.00 in 0.01 in 0.28 in (1972)
Month to date precipitation 0.02  
Year to date precipitation 3.39  
Snow  
Snow 0.00 in 0.00 in - ()
Month to date snowfall 0.0  
Since 1 July snowfall 0.0  
Since 1 September snowfall 0.0  
Snow Depth -    
Sea Level Pressure  
Sea Level Pressure 30.26 in    
Wind  
Wind Speed 6 mph (SW)    
Max Wind Speed 29 mph    
Max Gust Speed 40 mph    
Visibility 10 miles    
Events      
T = Trace of Precipitation, MM = Missing Value Source: NWS Daily Summary

Daily Weather History Graph

Daily Weather History Graph

Search for Another Location

Airport or City:

Trip Planner

Search our weather history database for the weather conditions in past years. The results will help you decide how hot, cold, wet, or windy it might be!

Date:

Astronomy

Sep. 05, 2013 Rise Set
Actual Time 6:29 AM PDT 7:17 PM PDT
Civil Twilight 6:02 AM PDT 7:44 PM PDT
Nautical Twilight 5:31 AM PDT 8:15 PM PDT
Astronomical Twilight 4:58 AM PDT 8:48 PM PDT
Moon 6:44 AM PDT (9/5) 7:14 PM PDT (9/5)
Length of Visible Light 13h 41m
Length of Day
12h 48m
New Moon, 0% of the Moon is Illuminated
Sep 5
New Moon
Sep 12
First Quarter
Sep 19
Full
Sep 26
Last Quarter
Oct 4
New

Hourly Weather History & Observations

Time (PDT) Temp. Dew Point Humidity Pressure Visibility Wind Dir Wind Speed Gust Speed Precip Events Conditions
12:15 AM 60.8 °F 42.8 °F 52% 30.28 in 10.0 mi West 9.2 mph - N/A   Clear
12:35 AM 60.8 °F 42.8 °F 52% 30.28 in 10.0 mi ENE 3.5 mph 15.0 mph N/A   Clear
12:55 AM 57.2 °F 42.8 °F 59% 30.28 in 10.0 mi NNE 3.5 mph - N/A   Scattered Clouds
1:15 AM 53.6 °F 42.8 °F 67% 30.27 in 10.0 mi North 4.6 mph - N/A   Scattered Clouds
1:35 AM 55.4 °F 42.8 °F 63% 30.27 in 10.0 mi NW 3.5 mph - N/A   Scattered Clouds
1:55 AM 57.2 °F 42.8 °F 59% 30.27 in 10.0 mi NNW 3.5 mph - N/A   Mostly Cloudy
2:15 AM 55.4 °F 42.8 °F 63% 30.27 in 10.0 mi NE 3.5 mph - N/A   Scattered Clouds
2:35 AM 57.2 °F 42.8 °F 59% 30.27 in 10.0 mi Calm Calm - N/A   Scattered Clouds
2:55 AM 53.6 °F 41.0 °F 62% 30.26 in 10.0 mi Calm Calm - N/A   Scattered Clouds
3:15 AM 53.6 °F 41.0 °F 62% 30.26 in 10.0 mi NNW 3.5 mph - N/A   Scattered Clouds
3:35 AM 51.8 °F 41.0 °F 67% 30.26 in 10.0 mi NE 4.6 mph - N/A   Scattered Clouds
3:55 AM 55.4 °F 41.0 °F 58% 30.26 in 10.0 mi Calm Calm - N/A   Scattered Clouds
4:15 AM 53.6 °F 41.0 °F 62% 30.26 in 10.0 mi NNW 3.5 mph - N/A   Scattered Clouds
4:35 AM 55.4 °F 42.8 °F 63% 30.25 in 10.0 mi Calm Calm - N/A   Clear
4:55 AM 53.6 °F 42.8 °F 67% 30.26 in 10.0 mi Calm Calm - N/A   Clear
5:15 AM 53.6 °F 41.0 °F 62% 30.26 in 10.0 mi Calm Calm - N/A   Clear
5:35 AM 51.8 °F 41.0 °F 67% 30.26 in 10.0 mi Calm Calm - N/A   Clear
5:55 AM 51.8 °F 41.0 °F 67% 30.26 in 10.0 mi South 5.8 mph - N/A   Clear
6:15 AM 50.0 °F 41.0 °F 71% 30.26 in 10.0 mi Calm Calm - N/A   Clear
6:35 AM 51.8 °F 41.0 °F 67% 30.27 in 10.0 mi Calm Calm - N/A   Clear
6:55 AM 53.6 °F 41.0 °F 62% 30.26 in 10.0 mi ESE 3.5 mph - N/A   Scattered Clouds
7:15 AM 57.2 °F 41.0 °F 55% 30.27 in 10.0 mi Calm Calm - N/A   Scattered Clouds
7:35 AM 57.2 °F 42.8 °F 59% 30.27 in 10.0 mi Calm Calm - N/A   Clear
7:55 AM 62.6 °F 42.8 °F 48% 30.26 in 10.0 mi Calm Calm - N/A   Clear
8:15 AM 62.6 °F 42.8 °F 48% 30.26 in 10.0 mi SSE 10.4 mph - N/A   Clear
8:35 AM 64.4 °F 41.0 °F 42% 30.26 in 10.0 mi SSW 4.6 mph - N/A   Clear
8:55 AM 68.0 °F 37.4 °F 33% 30.26 in 10.0 mi SW 13.8 mph 24.2 mph N/A   Clear
9:15 AM 69.8 °F 35.6 °F 28% 30.27 in 10.0 mi SE 4.6 mph - N/A   Clear
9:35 AM 71.6 °F 35.6 °F 27% 30.27 in 10.0 mi ESE 3.5 mph - N/A   Clear
9:55 AM 71.6 °F 35.6 °F 27% 30.27 in 10.0 mi WSW 12.7 mph 20.7 mph N/A   Clear
10:15 AM 71.6 °F 35.6 °F 27% 30.27 in 10.0 mi Calm Calm - N/A   Clear
10:35 AM 75.2 °F 35.6 °F 24% 30.27 in 10.0 mi South 16.1 mph 23.0 mph N/A   Scattered Clouds
10:55 AM 75.2 °F 35.6 °F 24% 30.26 in 10.0 mi SE 4.6 mph - N/A   Scattered Clouds
11:15 AM 75.2 °F 35.6 °F 24% 30.26 in 10.0 mi West 6.9 mph - N/A   Scattered Clouds
11:35 AM 75.2 °F 35.6 °F 24% 30.26 in 10.0 mi SSE 3.5 mph 18.4 mph N/A   Scattered Clouds
11:55 AM 73.4 °F 35.6 °F 25% 30.26 in 10.0 mi SSW 9.2 mph 19.6 mph N/A   Scattered Clouds
12:15 PM 77.0 °F 35.6 °F 22% 30.26 in 10.0 mi SW 19.6 mph 24.2 mph N/A   Scattered Clouds
12:35 PM 75.2 °F 35.6 °F 24% 30.26 in 10.0 mi SW 12.7 mph 23.0 mph N/A   Scattered Clouds
12:55 PM 77.0 °F 33.8 °F 21% 30.26 in 10.0 mi SW 28.8 mph 40.3 mph N/A   Scattered Clouds
1:15 PM 77.0 °F 33.8 °F 21% 30.26 in 10.0 mi SW 9.2 mph 32.2 mph N/A   Scattered Clouds
1:35 PM 77.0 °F 32.0 °F 19% 30.25 in 10.0 mi SW 17.3 mph 27.6 mph N/A   Clear
1:55 PM 77.0 °F 32.0 °F 19% 30.25 in 10.0 mi West 10.4 mph 23.0 mph N/A   Scattered Clouds
2:15 PM 78.8 °F 32.0 °F 18% 30.26 in 10.0 mi SW 9.2 mph 18.4 mph N/A   Scattered Clouds
2:35 PM 78.8 °F 32.0 °F 18% 30.25 in 10.0 mi SW 15.0 mph 26.5 mph N/A   Clear
2:55 PM 78.8 °F 32.0 °F 18% 30.24 in 10.0 mi SW 19.6 mph 27.6 mph N/A   Clear
3:15 PM 78.8 °F 32.0 °F 18% 30.24 in 10.0 mi South 15.0 mph 33.4 mph N/A   Clear
3:35 PM 77.0 °F 32.0 °F 19% 30.24 in 10.0 mi Calm Calm - N/A   Clear
3:55 PM 78.8 °F 32.0 °F 18% 30.24 in 10.0 mi South 11.5 mph 24.2 mph N/A   Clear
4:15 PM 78.8 °F 30.2 °F 17% 30.23 in 10.0 mi NNW 8.1 mph - N/A   Clear
4:35 PM 77.0 °F 30.2 °F 18% 30.24 in 10.0 mi WSW 11.5 mph 23.0 mph N/A   Clear
4:55 PM 77.0 °F 28.4 °F 17% 30.24 in 10.0 mi SW 13.8 mph 28.8 mph N/A   Clear
5:15 PM 77.0 °F 30.2 °F 18% 30.23 in 10.0 mi West 11.5 mph 24.2 mph N/A   Clear
5:35 PM 77.0 °F 30.2 °F 18% 30.23 in 10.0 mi WSW 5.8 mph 17.3 mph N/A   Clear
5:55 PM 75.2 °F 32.0 °F 21% 30.24 in 10.0 mi WSW 17.3 mph 26.5 mph N/A   Clear
6:15 PM 75.2 °F 32.0 °F 21% 30.24 in 10.0 mi SSW 9.2 mph 21.9 mph N/A   Clear
6:35 PM 73.4 °F 32.0 °F 22% 30.24 in 10.0 mi WSW 8.1 mph - N/A   Clear
6:55 PM 71.6 °F 32.0 °F 23% 30.24 in 10.0 mi SW 8.1 mph 19.6 mph N/A   Clear
7:15 PM 69.8 °F 32.0 °F 25% 30.24 in 10.0 mi WSW 9.2 mph - N/A   Clear
7:35 PM 69.8 °F 30.2 °F 23% 30.24 in 10.0 mi WSW 8.1 mph - N/A   Clear
7:55 PM 69.8 °F 30.2 °F 23% 30.25 in 10.0 mi South 11.5 mph - N/A   Clear
8:15 PM 68.0 °F 30.2 °F 24% 30.26 in 10.0 mi SW 6.9 mph - N/A   Clear
8:35 PM 66.2 °F 30.2 °F 26% 30.27 in 10.0 mi SSW 6.9 mph - N/A   Clear
8:55 PM 64.4 °F 32.0 °F 30% 30.28 in 10.0 mi SSW 3.5 mph - N/A   Clear
9:15 PM 66.2 °F 32.0 °F 28% 30.28 in 10.0 mi South 11.5 mph - N/A   Clear
9:35 PM 64.4 °F 32.0 °F 30% 30.29 in 10.0 mi WSW 4.6 mph - N/A   Clear
9:55 PM 59.0 °F 35.6 °F 42% 30.29 in 10.0 mi SW 6.9 mph - N/A   Clear
10:15 PM 62.6 °F 33.8 °F 34% 30.29 in 10.0 mi SW 4.6 mph - N/A   Clear
10:35 PM 62.6 °F 33.8 °F 34% 30.28 in 10.0 mi SW 6.9 mph - N/A   Clear
10:55 PM 64.4 °F 32.0 °F 30% 30.28 in 10.0 mi SSW 3.5 mph - N/A   Clear
11:15 PM 64.4 °F 32.0 °F 30% 30.28 in 10.0 mi SW 8.1 mph - N/A   Clear
11:35 PM 64.4 °F 32.0 °F 30% 30.28 in 10.0 mi SW 10.4 mph - N/A   Clear
11:55 PM 64.4 °F 32.0 °F 30% 30.28 in 10.0 mi SW 6.9 mph - N/A   Clear